User: anonymous
Location: Unspecified
(0.0000°N, 0.0000°E)
Time: 22:18:26
(UTC+00:00)
Language:

Aussat K3 - Orbit

View from above orbital plane
View from above orbital plane
View from above satellite
View from above satellite

Ground track
Ground track

The orbit data is extracted from the following two-line orbital elements,

1 18350U 87078A   14108.08292453 -.00000246  00000-0  00000+0 0   986
2 18350 013.6150 030.5489 0003542 287.7604 255.5188 00.98908642 96579
Epoch (UTC): 18 April 2014 01:59:24
Eccentricity: 0.0003542
inclination: 13.6150°
perigee height: 36157 km
apogee height: 36188 km
right ascension of ascending node: 30.5489°
argument of perigee: 287.7604°
revolutions per day: 0.98908642
mean anomaly at epoch: 255.5188°
orbit number at epoch: 9657

The dashed part of the orbit path shows where the satellite is in the earth's shadow,  

DLR